Погода в Мокрой Бугурне

Россия / Ульяновская область     54°40′22″N   48°02′54″E
темп.,
°C
ветер,
м/с
пор.,
м/с
влажн.,
%
обл.,
%
осадки,
мм/ч
давл.,
гПа
погр.,
м
28 февраля, вс
вс2801:00−16ссз61194100 0.1 1005326
04:00−18сз61296100 0.1 1007277
07:00−19сз61295100 0.0 1008268
10:00−19сз6119486 0.0 1009288
13:00−16сз6109286 0.0 1011350
16:00−15ссз599285 0.0 1012378
19:00−16сз5109589 0.0 1014206
22:00−17ссз489794 0.1 1017162
1 марта, пн
пн101:00−20ссз349827 0.0 101868
04:00−21сз349836 0.0 102066
07:00−22сз34981 0.0 102168
10:00−20сз36970 0.0 1023155
13:00−16сз24930 0.0 1022245
16:00−14з119421 0.0 102224
19:00−15з349586 0.0 102150
22:00−16юз359564 0.0 102082
2 марта, вт
вт201:00−13юз4109596 0.0 1017222
04:00−11юз5129398 0.0 1013283
07:00−7юз71492100 0.3 1008495
10:00−4юз71490100 0.4 1005575
13:00−2юз71295100 0.1 1002576
16:000зюз5996100 0.8 1000508
19:00−2з389399 0.1 999179
22:00−2зсз5129790 0.3 1000493
3 марта, ср
ср301:00−3сз6139493 0.3 1000385
04:00−4сз5119480 0.3 1002307
07:00−5сз5109499 0.1 1002394
10:00−5сз5109495 0.3 1004451
13:00−3сз6992100 0.2 1005631
16:00−3сз6109399 0.4 1006629
19:00−5ссз8139396 0.4 1008638
22:00−8сз5138973 0.5 1011290
4 марта, чт
чт401:00−9сз5129360 0.0 1012281
04:00−9сз5109473 0.1 1013320
07:00−11зсз4109588 0.1 1014211
10:00−11зсз599478 0.1 1015247
13:00−8з589126 0.0 1014410
16:00−6юз5109132 0.0 1013359
19:00−3зюз6129073 0.0 1011632
22:00−3зюз8149087 0.0 1009676